Weather History for North Island, CA

Change the Weather History Date:

Tuesday, December 13, 2011

  Actual Average Record
Temperature  
Mean Temperature 54 °F -  
Max Temperature 57 °F 63 °F 80 °F (2010)
Min Temperature 50 °F 47 °F 43 °F (1999)
Degree Days  
Heating Degree Days 11    
Growing Degree Days 4 (Base 50)    
Moisture  
Dew Point 45 °F    
Average Humidity 72    
Maximum Humidity 77    
Minimum Humidity 65    
Precipitation  
Precipitation 0.32 in - - ()
Sea Level Pressure  
Sea Level Pressure 29.93 in    
Wind  
Wind Speed 3 mph (East)    
Max Wind Speed 6 mph    
Max Gust Speed -    
Visibility 9 miles    
Events Rain    
Averages and records for this station are not official NWS values.
T = Trace of Precipitation, MM = Missing Value Source: NWS Daily Summary

Daily Weather History Graph

Daily Weather History Graph

Search for Another Location

Airport:

Trip Planner

Search our weather history database for the weather conditions in past years. The results will help you decide how hot, cold, wet, or windy it might be!

Date:

Astronomy

Dec. 13, 2011 Rise Set
Actual Time 6:42 AM PST 4:43 PM PST
Civil Twilight 6:14 AM PST 5:11 PM PST
Nautical Twilight 5:44 AM PST 5:41 PM PST
Astronomical Twilight 5:14 AM PST 6:11 PM PST
Moon 7:57 PM PST (12/13) 9:00 AM PST (12/13)
Length of Visible Light 10h 56m
Length of Day
10h 01m
Waning Gibbous, 90% of the Moon is Illuminated
Dec 13
Waning Gibbous
Dec 17
Last Quarter
Dec 24
New
Dec 31
First Quarter
Jan 8
Full

Hourly Weather History & Observations

Time (PST) Temp. Dew Point Humidity Pressure Visibility Wind Dir Wind Speed Gust Speed Precip Events Conditions
12:52 AM 54.0 °F 46.0 °F 75% 29.84 in 10.0 mi East 3.5 mph - N/A   Mostly Cloudy
1:52 AM 54.0 °F 45.0 °F 72% 29.83 in 10.0 mi East 4.6 mph - 0.01 in Rain Light Rain
2:52 AM 54.0 °F 46.9 °F 77% 29.83 in 8.0 mi Calm Calm - 0.04 in Rain Light Rain
3:52 AM 53.1 °F 46.0 °F 77% 29.85 in 5.0 mi Calm Calm - 0.12 in Rain Rain
4:39 AM 53.6 °F 46.4 °F 77% 29.83 in 9.0 mi ENE 5.8 mph - 0.05 in   Overcast
4:52 AM 53.1 °F 46.0 °F 77% 29.83 in 10.0 mi ENE 3.5 mph - 0.05 in   Overcast
5:52 AM 53.1 °F 46.0 °F 77% 29.85 in 9.0 mi ENE 4.6 mph - 0.00 in Rain Light Rain
6:15 AM 53.6 °F 46.4 °F 77% 29.85 in 10.0 mi ENE 5.8 mph - 0.01 in   Overcast
6:52 AM 54.0 °F 46.0 °F 75% 29.86 in 10.0 mi ENE 5.8 mph - 0.01 in   Overcast
7:39 AM 55.4 °F 46.4 °F 72% 29.88 in 8.0 mi South 3.5 mph - N/A Rain Light Rain
7:52 AM 55.0 °F 45.0 °F 69% 29.89 in 8.0 mi South 3.5 mph - 0.00 in Rain Light Rain
8:52 AM 54.0 °F 45.0 °F 72% 29.91 in 7.0 mi SE 4.6 mph - 0.01 in Rain Light Rain
9:52 AM 55.0 °F 46.0 °F 72% 29.93 in 8.0 mi East 5.8 mph - 0.01 in Rain Light Rain
10:52 AM 55.0 °F 44.1 °F 67% 29.93 in 8.0 mi ESE 5.8 mph - 0.00 in Rain Light Rain
11:52 AM 55.0 °F 44.1 °F 67% 29.92 in 8.0 mi SSE 3.5 mph - 0.01 in Rain Light Rain
12:52 PM 55.0 °F 46.0 °F 72% 29.92 in 7.0 mi Calm Calm - 0.04 in Rain Light Rain
1:52 PM 57.0 °F 46.9 °F 69% 29.93 in 7.0 mi Calm Calm - 0.02 in Rain Light Rain
2:08 PM 57.2 °F 46.4 °F 67% 29.93 in 10.0 mi North 3.5 mph - 0.00 in   Mostly Cloudy
2:52 PM 57.9 °F 46.0 °F 65% 29.94 in 10.0 mi Calm Calm - 0.00 in   Mostly Cloudy
3:52 PM 57.0 °F 46.0 °F 67% 29.96 in 10.0 mi Calm Calm - N/A   Mostly Cloudy
4:52 PM 55.9 °F 45.0 °F 67% 29.98 in 10.0 mi Calm Calm - N/A   Scattered Clouds
5:52 PM 55.0 °F 44.1 °F 67% 30.01 in 10.0 mi Calm Calm - N/A   Scattered Clouds
6:52 PM 53.1 °F 44.1 °F 71% 30.04 in 10.0 mi Calm Calm - N/A   Scattered Clouds
7:52 PM 53.1 °F 45.0 °F 74% 30.06 in 10.0 mi ESE 4.6 mph - N/A   Partly Cloudy
8:52 PM 52.0 °F 45.0 °F 77% 30.07 in 9.0 mi East 4.6 mph - N/A   Mostly Cloudy
9:52 PM 53.1 °F 45.0 °F 74% 30.09 in 9.0 mi ESE 4.6 mph - N/A   Scattered Clouds
10:52 PM 51.1 °F 44.1 °F 77% 30.10 in 9.0 mi East 4.6 mph - N/A   Scattered Clouds
11:52 PM 50.0 °F 43.0 °F 77% 30.11 in 8.0 mi East 4.6 mph - N/A   Partly Cloudy